Voltar ao catálogo

BALKAN-2

AtivoCiênciaSSO
NORAD 69024·PAYLOAD·🇬🇧 United Kingdom

Lançado May 3, 2026 de Vandenberg Space Force Base

Loading…

Próximas Passagens (próximas 24 horas)

TLE

AtualizadoSource: Space-Track

Época: Sep 14, 2026, 03:28 UTC

1 69024U 26100AW  26257.14469131  .00003904  00000-0  17988-3 0  9993
2 69024  97.3937 153.3367 0004747  62.8238 297.3481 15.20851357 20328

Acompanhe BALKAN-2 em tempo real com AllMySat

Download on the App Store